Time,TemperatureF,DewpointF,PressureIn,WindDirection,WindDirectionDegrees,WindSpeedMPH,WindSpeedGustMPH,Humidity,HourlyPrecipIn,Conditions,Clouds,dailyrainin,SoftwareType,DateUTC
2013-03-08 00:00:00,13.0,8.6,30.34,North,0,0.0,0.0,82,0.00,,,0.00,Meteo,2013-03-08 06:00:00,
2013-03-08 00:05:00,12.0,7.6,30.34,North,0,0.0,0.0,82,0.00,,,0.00,Meteo,2013-03-08 06:05:00,
2013-03-08 00:10:00,12.0,7.3,30.34,North,0,0.0,0.0,81,0.00,,,0.00,Meteo,2013-03-08 06:10:00,
2013-03-08 00:15:00,12.0,7.3,30.34,North,0,0.0,0.0,81,0.00,,,0.00,Meteo,2013-03-08 06:15:00,
2013-03-08 00:20:00,12.0,7.3,30.34,North,0,0.0,0.0,81,0.00,,,0.00,Meteo,2013-03-08 06:20:00,
2013-03-08 00:26:00,12.0,7.3,30.34,North,0,0.0,0.0,81,0.00,,,0.00,Meteo,2013-03-08 06:26:00,
2013-03-08 00:31:00,11.0,6.3,30.34,NNE,20,1.0,1.0,81,0.00,,,0.00,Meteo,2013-03-08 06:31:00,
2013-03-08 00:36:00,11.0,6.3,30.34,North,0,0.0,0.0,81,0.00,,,0.00,Meteo,2013-03-08 06:36:00,
2013-03-08 00:41:00,11.0,6.3,30.34,North,0,0.0,0.0,81,0.00,,,0.00,Meteo,2013-03-08 06:41:00,
2013-03-08 00:46:00,11.0,6.3,30.34,North,0,0.0,0.0,81,0.00,,,0.00,Meteo,2013-03-08 06:46:00,
2013-03-08 00:51:00,11.0,6.3,30.35,North,0,0.0,0.0,81,0.00,,,0.00,Meteo,2013-03-08 06:51:00,
2013-03-08 00:56:00,11.0,6.3,30.35,North,0,0.0,0.0,81,0.00,,,0.00,Meteo,2013-03-08 06:56:00,
2013-03-08 01:01:00,11.0,6.3,30.35,North,0,0.0,0.0,81,0.00,,,0.00,Meteo,2013-03-08 07:01:00,
2013-03-08 01:06:00,11.0,6.1,30.35,North,0,0.0,0.0,80,0.00,,,0.00,Meteo,2013-03-08 07:06:00,
2013-03-08 01:11:00,11.0,6.3,30.35,North,0,0.0,0.0,81,0.00,,,0.00,Meteo,2013-03-08 07:11:00,
2013-03-08 01:16:00,11.0,6.3,30.35,North,0,0.0,0.0,81,0.00,,,0.00,Meteo,2013-03-08 07:16:00,
2013-03-08 01:21:00,11.0,6.3,30.35,North,0,0.0,0.0,81,0.00,,,0.00,Meteo,2013-03-08 07:21:00,
2013-03-08 01:26:00,11.0,6.3,30.35,North,0,0.0,0.0,81,0.00,,,0.00,Meteo,2013-03-08 07:26:00,
2013-03-08 01:31:00,11.0,6.3,30.35,North,0,0.0,0.0,81,0.00,,,0.00,Meteo,2013-03-08 07:31:00,
2013-03-08 01:36:00,11.0,6.3,30.35,North,0,0.0,0.0,81,0.00,,,0.00,Meteo,2013-03-08 07:36:00,
2013-03-08 01:41:00,11.0,6.6,30.35,North,0,0.0,0.0,82,0.00,,,0.00,Meteo,2013-03-08 07:41:00,
2013-03-08 01:46:00,11.0,6.6,30.35,North,0,0.0,0.0,82,0.00,,,0.00,Meteo,2013-03-08 07:46:00,
2013-03-08 01:51:00,11.0,6.6,30.35,North,0,0.0,0.0,82,0.00,,,0.00,Meteo,2013-03-08 07:51:00,
2013-03-08 01:56:00,11.0,6.6,30.35,North,0,0.0,0.0,82,0.00,,,0.00,Meteo,2013-03-08 07:56:00,
2013-03-08 02:02:00,12.0,7.6,30.36,North,0,0.0,0.0,82,0.00,,,0.00,Meteo,2013-03-08 08:02:00,
2013-03-08 02:07:00,12.0,7.3,30.36,North,0,0.0,0.0,81,0.00,,,0.00,Meteo,2013-03-08 08:07:00,
2013-03-08 02:12:00,12.0,7.3,30.36,North,0,0.0,0.0,81,0.00,,,0.00,Meteo,2013-03-08 08:12:00,
2013-03-08 02:17:00,12.0,7.3,30.35,North,0,0.0,0.0,81,0.00,,,0.00,Meteo,2013-03-08 08:17:00,
2013-03-08 02:22:00,12.0,7.3,30.35,North,0,0.0,0.0,81,0.00,,,0.00,Meteo,2013-03-08 08:22:00,
2013-03-08 02:27:00,12.0,7.3,30.35,North,0,0.0,0.0,81,0.00,,,0.00,Meteo,2013-03-08 08:27:00,
2013-03-08 02:32:00,12.0,7.6,30.35,North,0,0.0,0.0,82,0.00,,,0.00,Meteo,2013-03-08 08:32:00,
2013-03-08 02:37:00,12.0,7.3,30.35,North,0,0.0,0.0,81,0.00,,,0.00,Meteo,2013-03-08 08:37:00,
2013-03-08 02:42:00,12.0,7.6,30.35,North,0,0.0,0.0,82,0.00,,,0.00,Meteo,2013-03-08 08:42:00,
2013-03-08 02:47:00,12.0,7.6,30.35,North,0,0.0,0.0,82,0.00,,,0.00,Meteo,2013-03-08 08:47:00,
2013-03-08 02:52:00,12.0,7.6,30.35,North,0,0.0,0.0,82,0.00,,,0.00,Meteo,2013-03-08 08:52:00,
2013-03-08 02:57:00,12.0,7.6,30.34,North,0,0.0,0.0,82,0.00,,,0.00,Meteo,2013-03-08 08:57:00,
2013-03-08 03:02:00,13.0,8.6,30.34,North,0,0.0,0.0,82,0.00,,,0.00,Meteo,2013-03-08 09:02:00,
2013-03-08 03:07:00,13.0,8.6,30.34,North,0,0.0,0.0,82,0.00,,,0.00,Meteo,2013-03-08 09:07:00,
2013-03-08 03:12:00,13.0,8.6,30.33,North,0,0.0,0.0,82,0.00,,,0.00,Meteo,2013-03-08 09:12:00,
2013-03-08 03:17:00,13.0,8.6,30.33,North,0,0.0,0.0,82,0.00,,,0.00,Meteo,2013-03-08 09:17:00,
2013-03-08 03:22:00,13.0,8.3,30.33,North,0,0.0,0.0,81,0.00,,,0.00,Meteo,2013-03-08 09:22:00,
2013-03-08 03:27:00,13.0,8.3,30.33,North,0,0.0,0.0,81,0.00,,,0.00,Meteo,2013-03-08 09:27:00,
2013-03-08 03:32:00,13.0,8.3,30.33,North,0,0.0,0.0,81,0.00,,,0.00,Meteo,2013-03-08 09:32:00,
2013-03-08 03:38:00,13.0,8.3,30.33,North,0,0.0,0.0,81,0.00,,,0.00,Meteo,2013-03-08 09:38:00,
2013-03-08 03:43:00,13.0,8.6,30.33,North,0,0.0,0.0,82,0.00,,,0.00,Meteo,2013-03-08 09:43:00,
2013-03-08 03:48:00,13.0,8.6,30.33,North,0,0.0,0.0,82,0.00,,,0.00,Meteo,2013-03-08 09:48:00,
2013-03-08 03:53:00,13.0,8.3,30.33,North,0,0.0,0.0,81,0.00,,,0.00,Meteo,2013-03-08 09:53:00,
2013-03-08 03:58:00,13.0,8.6,30.34,North,0,0.0,0.0,82,0.00,,,0.00,Meteo,2013-03-08 09:58:00,
2013-03-08 04:03:00,13.0,8.6,30.33,North,0,0.0,0.0,82,0.00,,,0.00,Meteo,2013-03-08 10:03:00,
2013-03-08 04:08:00,13.0,8.6,30.33,North,0,0.0,0.0,82,0.00,,,0.00,Meteo,2013-03-08 10:08:00,
2013-03-08 04:13:00,13.0,8.6,30.33,North,0,0.0,0.0,82,0.00,,,0.00,Meteo,2013-03-08 10:13:00,
2013-03-08 04:18:00,13.0,8.3,30.34,North,0,0.0,0.0,81,0.00,,,0.00,Meteo,2013-03-08 10:18:00,
2013-03-08 04:23:00,13.0,8.3,30.34,North,0,0.0,0.0,81,0.00,,,0.00,Meteo,2013-03-08 10:23:00,
2013-03-08 04:28:00,13.0,8.3,30.33,North,0,0.0,0.0,81,0.00,,,0.00,Meteo,2013-03-08 10:28:00,
2013-03-08 04:33:00,13.0,8.3,30.33,North,0,0.0,0.0,81,0.00,,,0.00,Meteo,2013-03-08 10:33:00,
2013-03-08 04:38:00,13.0,8.3,30.33,NNE,20,0.0,1.0,81,0.00,,,0.00,Meteo,2013-03-08 10:38:00,
2013-03-08 04:43:00,12.0,7.0,30.33,ENE,74,1.0,2.0,80,0.00,,,0.00,Meteo,2013-03-08 10:43:00,
2013-03-08 04:48:00,12.0,6.8,30.33,North,0,0.0,0.0,79,0.00,,,0.00,Meteo,2013-03-08 10:48:00,
2013-03-08 04:53:00,12.0,6.8,30.32,North,0,0.0,0.0,79,0.00,,,0.00,Meteo,2013-03-08 10:53:00,
2013-03-08 04:58:00,11.0,5.8,30.32,North,0,0.0,0.0,79,0.00,,,0.00,Meteo,2013-03-08 10:58:00,
2013-03-08 05:03:00,11.0,5.8,30.32,North,0,0.0,0.0,79,0.00,,,0.00,Meteo,2013-03-08 11:03:00,
2013-03-08 05:08:00,11.0,5.8,30.33,North,0,0.0,0.0,79,0.00,,,0.00,Meteo,2013-03-08 11:08:00,
2013-03-08 05:13:00,11.0,5.8,30.33,North,0,0.0,0.0,79,0.00,,,0.00,Meteo,2013-03-08 11:13:00,
2013-03-08 05:18:00,11.0,5.8,30.33,North,0,0.0,0.0,79,0.00,,,0.00,Meteo,2013-03-08 11:18:00,
2013-03-08 05:23:00,11.0,6.1,30.32,North,0,0.0,0.0,80,0.00,,,0.00,Meteo,2013-03-08 11:23:00,
2013-03-08 05:28:00,11.0,6.1,30.32,North,0,0.0,0.0,80,0.00,,,0.00,Meteo,2013-03-08 11:28:00,
2013-03-08 05:33:00,10.0,5.1,30.32,North,0,0.0,0.0,80,0.00,,,0.00,Meteo,2013-03-08 11:33:00,
2013-03-08 05:38:00,10.0,5.1,30.32,North,0,0.0,0.0,80,0.00,,,0.00,Meteo,2013-03-08 11:38:00,
2013-03-08 05:43:00,10.0,5.1,30.32,North,0,0.0,0.0,80,0.00,,,0.00,Meteo,2013-03-08 11:43:00,
2013-03-08 05:48:00,10.0,5.1,30.32,North,0,0.0,0.0,80,0.00,,,0.00,Meteo,2013-03-08 11:48:00,
2013-03-08 05:53:00,10.0,4.8,30.32,North,0,0.0,0.0,79,0.00,,,0.00,Meteo,2013-03-08 11:53:00,
2013-03-08 05:59:00,10.0,5.1,30.32,East,79,0.0,1.0,80,0.00,,,0.00,Meteo,2013-03-08 11:59:00,
2013-03-08 06:04:00,10.0,5.1,30.32,North,0,0.0,0.0,80,0.00,,,0.00,Meteo,2013-03-08 12:04:00,
2013-03-08 06:09:00,10.0,5.3,30.32,North,0,0.0,0.0,81,0.00,,,0.00,Meteo,2013-03-08 12:09:00,
2013-03-08 06:14:00,10.0,5.1,30.33,North,0,0.0,0.0,80,0.00,,,0.00,Meteo,2013-03-08 12:14:00,
2013-03-08 06:19:00,10.0,5.3,30.33,North,0,0.0,0.0,81,0.00,,,0.00,Meteo,2013-03-08 12:19:00,
2013-03-08 06:24:00,10.0,5.3,30.32,North,0,0.0,0.0,81,0.00,,,0.00,Meteo,2013-03-08 12:24:00,
2013-03-08 06:29:00,10.0,5.3,30.32,North,0,0.0,0.0,81,0.00,,,0.00,Meteo,2013-03-08 12:29:00,
2013-03-08 06:34:00,10.0,5.1,30.32,North,0,0.0,0.0,80,0.00,,,0.00,Meteo,2013-03-08 12:34:00,
2013-03-08 06:39:00,9.0,4.1,30.32,North,0,0.0,0.0,80,0.00,,,0.00,Meteo,2013-03-08 12:39:00,
2013-03-08 06:44:00,9.0,3.8,30.32,North,0,0.0,0.0,79,0.00,,,0.00,Meteo,2013-03-08 12:44:00,
2013-03-08 06:49:00,9.0,4.1,30.32,North,0,0.0,0.0,80,0.00,,,0.00,Meteo,2013-03-08 12:49:00,
2013-03-08 06:54:00,9.0,4.1,30.32,North,0,0.0,0.0,80,0.00,,,0.00,Meteo,2013-03-08 12:54:00,
2013-03-08 06:59:00,9.0,4.1,30.32,North,0,0.0,0.0,80,0.00,,,0.00,Meteo,2013-03-08 12:59:00,
2013-03-08 07:04:00,9.0,4.1,30.32,North,0,0.0,0.0,80,0.00,,,0.00,Meteo,2013-03-08 13:04:00,
2013-03-08 07:09:00,10.0,5.1,30.32,North,0,0.0,0.0,80,0.00,,,0.00,Meteo,2013-03-08 13:09:00,
2013-03-08 07:14:00,10.0,5.1,30.32,North,0,0.0,0.0,80,0.00,,,0.00,Meteo,2013-03-08 13:14:00,
2013-03-08 07:19:00,10.0,5.1,30.32,North,0,0.0,0.0,80,0.00,,,0.00,Meteo,2013-03-08 13:19:00,
2013-03-08 07:24:00,10.0,5.1,30.32,North,0,0.0,0.0,80,0.00,,,0.00,Meteo,2013-03-08 13:24:00,
2013-03-08 07:29:00,11.0,6.1,30.32,North,0,0.0,0.0,80,0.00,,,0.00,Meteo,2013-03-08 13:29:00,
2013-03-08 07:34:00,11.0,6.3,30.32,North,0,0.0,0.0,81,0.00,,,0.00,Meteo,2013-03-08 13:34:00,
2013-03-08 07:39:00,11.0,6.3,30.32,North,0,0.0,0.0,81,0.00,,,0.00,Meteo,2013-03-08 13:39:00,
2013-03-08 07:44:00,12.0,7.3,30.32,North,0,0.0,0.0,81,0.00,,,0.00,Meteo,2013-03-08 13:44:00,
2013-03-08 07:49:00,13.0,8.6,30.32,North,0,0.0,0.0,82,0.00,,,0.00,Meteo,2013-03-08 13:49:00,
2013-03-08 07:54:00,13.0,8.6,30.32,North,0,0.0,0.0,82,0.00,,,0.00,Meteo,2013-03-08 13:54:00,
2013-03-08 07:59:00,14.0,9.8,30.32,North,0,0.0,0.0,83,0.00,,,0.00,Meteo,2013-03-08 13:59:00,
2013-03-08 08:04:00,15.0,11.0,30.33,North,0,0.0,0.0,83,0.00,,,0.00,Meteo,2013-03-08 14:04:00,
2013-03-08 08:09:00,16.0,12.0,30.32,East,79,1.0,1.0,83,0.00,,,0.00,Meteo,2013-03-08 14:09:00,
2013-03-08 08:14:00,17.0,12.0,30.33,North,0,0.0,0.0,81,0.00,,,0.00,Meteo,2013-03-08 14:14:00,
2013-03-08 08:19:00,17.0,12.0,30.33,North,0,0.0,0.0,80,0.00,,,0.00,Meteo,2013-03-08 14:19:00,
2013-03-08 08:24:00,18.0,13.0,30.32,North,0,0.0,0.0,79,0.00,,,0.00,Meteo,2013-03-08 14:24:00,
2013-03-08 08:29:00,18.0,13.0,30.32,North,0,0.0,0.0,80,0.00,,,0.00,Meteo,2013-03-08 14:29:00,
2013-03-08 08:34:00,19.0,14.0,30.32,North,0,0.0,0.0,79,0.00,,,0.00,Meteo,2013-03-08 14:34:00,
2013-03-08 08:39:00,20.0,15.0,30.32,North,0,0.0,0.0,79,0.00,,,0.00,Meteo,2013-03-08 14:39:00,
2013-03-08 08:44:00,20.0,15.0,30.32,North,0,0.0,0.0,79,0.00,,,0.00,Meteo,2013-03-08 14:44:00,
2013-03-08 08:49:00,21.0,15.0,30.32,North,0,0.0,0.0,78,0.00,,,0.00,Meteo,2013-03-08 14:49:00,
2013-03-08 08:54:00,22.0,16.0,30.32,North,0,0.0,0.0,78,0.00,,,0.00,Meteo,2013-03-08 14:54:00,
2013-03-08 08:59:00,23.0,17.0,30.32,North,3,0.0,1.0,76,0.00,,,0.00,Meteo,2013-03-08 14:59:00,
2013-03-08 09:04:00,23.0,17.0,30.32,North,0,0.0,0.0,76,0.00,,,0.00,Meteo,2013-03-08 15:04:00,
2013-03-08 09:09:00,24.0,17.0,30.31,North,3,0.0,1.0,75,0.00,,,0.00,Meteo,2013-03-08 15:09:00,
2013-03-08 09:14:00,25.0,18.0,30.31,North,3,1.0,1.0,74,0.00,,,0.00,Meteo,2013-03-08 15:14:00,
2013-03-08 09:19:00,26.0,19.0,30.31,North,3,1.0,2.0,73,0.00,,,0.00,Meteo,2013-03-08 15:19:00,
2013-03-08 09:24:00,27.0,19.0,30.30,SSE,160,2.0,3.0,72,0.00,,,0.00,Meteo,2013-03-08 15:24:00,
2013-03-08 09:29:00,28.0,20.0,30.30,South,183,1.0,2.0,71,0.00,,,0.00,Meteo,2013-03-08 15:29:00,
2013-03-08 09:34:00,28.0,18.0,30.30,NW,311,1.0,2.0,67,0.00,,,0.00,Meteo,2013-03-08 15:34:00,
2013-03-08 09:39:00,28.0,18.0,30.30,NNW,343,2.0,3.0,66,0.00,,,0.00,Meteo,2013-03-08 15:39:00,
2013-03-08 09:44:00,28.0,19.0,30.30,NNW,334,0.0,1.0,68,0.00,,,0.00,Meteo,2013-03-08 15:44:00,
2013-03-08 09:50:00,28.0,19.0,30.30,WNW,303,2.0,3.0,68,0.00,,,0.00,Meteo,2013-03-08 15:50:00,
2013-03-08 09:55:00,29.0,19.0,30.30,West,263,2.0,3.0,67,0.00,,,0.00,Meteo,2013-03-08 15:55:00,
2013-03-08 10:00:00,29.0,19.0,30.30,NNW,338,2.0,4.0,66,0.00,,,0.00,Meteo,2013-03-08 16:00:00,
2013-03-08 10:05:00,29.0,19.0,30.30,North,355,1.0,2.0,65,0.00,,,0.00,Meteo,2013-03-08 16:05:00,
2013-03-08 10:10:00,29.0,19.0,30.30,NW,308,2.0,3.0,67,0.00,,,0.00,Meteo,2013-03-08 16:10:00,
2013-03-08 10:15:00,30.0,20.0,30.29,SSW,192,1.0,3.0,65,0.00,,,0.00,Meteo,2013-03-08 16:15:00,
2013-03-08 10:20:00,32.0,22.0,30.29,SSW,192,5.0,9.0,67,0.00,,,0.00,Meteo,2013-03-08 16:20:00,
2013-03-08 10:25:00,33.0,23.0,30.29,SSW,201,3.0,5.0,65,0.00,,,0.00,Meteo,2013-03-08 16:25:00,
2013-03-08 10:30:00,34.0,23.0,30.29,South,187,4.0,7.0,63,0.00,,,0.00,Meteo,2013-03-08 16:30:00,
2013-03-08 10:35:00,35.0,23.0,30.29,SSW,197,3.0,5.0,62,0.00,,,0.00,Meteo,2013-03-08 16:35:00,
2013-03-08 10:40:00,35.0,23.0,30.30,SW,214,6.0,10.0,62,0.00,,,0.00,Meteo,2013-03-08 16:40:00,
2013-03-08 10:45:00,35.0,23.0,30.30,SW,219,6.0,8.0,62,0.00,,,0.00,Meteo,2013-03-08 16:45:00,
2013-03-08 10:50:00,36.0,24.0,30.29,South,186,4.0,7.0,62,0.00,,,0.00,Meteo,2013-03-08 16:50:00,
2013-03-08 10:55:00,36.0,24.0,30.29,SSW,197,3.0,6.0,61,0.00,,,0.00,Meteo,2013-03-08 16:55:00,
2013-03-08 11:00:00,36.0,24.0,30.29,SSW,210,4.0,6.0,61,0.00,,,0.00,Meteo,2013-03-08 17:00:00,
2013-03-08 11:05:00,37.0,24.0,30.29,SSW,196,4.0,7.0,60,0.00,,,0.00,Meteo,2013-03-08 17:05:00,
2013-03-08 11:10:00,37.0,24.0,30.29,South,189,6.0,11.0,60,0.00,,,0.00,Meteo,2013-03-08 17:10:00,
2013-03-08 11:15:00,37.0,24.0,30.29,SSW,193,7.0,11.0,59,0.00,,,0.00,Meteo,2013-03-08 17:15:00,
2013-03-08 11:21:00,37.0,24.0,30.29,SSW,196,4.0,8.0,59,0.00,,,0.00,Meteo,2013-03-08 17:21:00,
2013-03-08 11:26:00,37.0,24.0,30.28,South,184,6.0,9.0,59,0.00,,,0.00,Meteo,2013-03-08 17:26:00,
2013-03-08 11:31:00,37.0,24.0,30.28,South,186,5.0,10.0,59,0.00,,,0.00,Meteo,2013-03-08 17:31:00,
2013-03-08 11:36:00,37.0,24.0,30.28,South,191,7.0,9.0,58,0.00,,,0.00,Meteo,2013-03-08 17:36:00,
2013-03-08 11:41:00,37.0,24.0,30.28,SSW,213,7.0,13.0,59,0.00,,,0.00,Meteo,2013-03-08 17:41:00,
2013-03-08 11:46:00,37.0,24.0,30.28,SSW,193,4.0,6.0,59,0.00,,,0.00,Meteo,2013-03-08 17:46:00,
2013-03-08 11:51:00,38.0,25.0,30.28,SSW,196,6.0,11.0,59,0.00,,,0.00,Meteo,2013-03-08 17:51:00,
2013-03-08 11:56:00,38.0,25.0,30.28,SSW,209,5.0,7.0,59,0.00,,,0.00,Meteo,2013-03-08 17:56:00,
2013-03-08 12:01:00,38.0,25.0,30.28,SW,214,5.0,9.0,59,0.00,,,0.00,Meteo,2013-03-08 18:01:00,
2013-03-08 12:06:00,38.0,25.0,30.27,South,177,4.0,6.0,58,0.00,,,0.00,Meteo,2013-03-08 18:06:00,
2013-03-08 12:11:00,39.0,25.0,30.27,SSW,199,5.0,7.0,57,0.00,,,0.00,Meteo,2013-03-08 18:11:00,
2013-03-08 12:16:00,39.0,25.0,30.27,SSW,202,5.0,8.0,57,0.00,,,0.00,Meteo,2013-03-08 18:16:00,
2013-03-08 12:21:00,39.0,25.0,30.27,SSW,197,4.0,5.0,57,0.00,,,0.00,Meteo,2013-03-08 18:21:00,
2013-03-08 12:26:00,40.0,26.0,30.27,SSW,194,5.0,7.0,56,0.00,,,0.00,Meteo,2013-03-08 18:26:00,
2013-03-08 12:31:00,40.0,26.0,30.26,South,187,2.0,6.0,57,0.00,,,0.00,Meteo,2013-03-08 18:31:00,
2013-03-08 12:36:00,40.0,26.0,30.26,SSW,211,6.0,9.0,56,0.00,,,0.00,Meteo,2013-03-08 18:36:00,
2013-03-08 12:41:00,40.0,26.0,30.26,South,187,4.0,7.0,56,0.00,,,0.00,Meteo,2013-03-08 18:41:00,
2013-03-08 12:46:00,40.0,26.0,30.26,South,186,4.0,6.0,56,0.00,,,0.00,Meteo,2013-03-08 18:46:00,
2013-03-08 12:51:00,41.0,26.0,30.26,SSW,195,3.0,5.0,55,0.00,,,0.00,Meteo,2013-03-08 18:51:00,
2013-03-08 12:56:00,41.0,26.0,30.25,SSW,196,4.0,6.0,55,0.00,,,0.00,Meteo,2013-03-08 18:56:00,
2013-03-08 13:01:00,41.0,26.0,30.25,SSW,192,4.0,5.0,54,0.00,,,0.00,Meteo,2013-03-08 19:01:00,
2013-03-08 13:06:00,41.0,26.0,30.25,South,190,3.0,5.0,54,0.00,,,0.00,Meteo,2013-03-08 19:06:00,
2013-03-08 13:11:00,42.0,27.0,30.25,South,190,3.0,4.0,54,0.00,,,0.00,Meteo,2013-03-08 19:11:00,
2013-03-08 13:16:00,42.0,26.0,30.25,South,190,2.0,3.0,53,0.00,,,0.00,Meteo,2013-03-08 19:16:00,
2013-03-08 13:21:00,43.0,27.0,30.24,SSW,206,3.0,6.0,52,0.00,,,0.00,Meteo,2013-03-08 19:21:00,
2013-03-08 13:26:00,42.0,26.0,30.24,SW,224,3.0,6.0,52,0.00,,,0.00,Meteo,2013-03-08 19:26:00,
2013-03-08 13:31:00,42.0,26.0,30.24,South,171,2.0,4.0,53,0.00,,,0.00,Meteo,2013-03-08 19:31:00,
2013-03-08 13:36:00,42.0,26.0,30.24,South,175,3.0,5.0,52,0.00,,,0.00,Meteo,2013-03-08 19:36:00,
2013-03-08 13:41:00,42.0,26.0,30.23,South,172,4.0,7.0,52,0.00,,,0.00,Meteo,2013-03-08 19:41:00,
2013-03-08 13:46:00,43.0,27.0,30.23,South,169,2.0,4.0,52,0.00,,,0.00,Meteo,2013-03-08 19:46:00,
2013-03-08 13:51:00,43.0,27.0,30.23,South,189,4.0,7.0,52,0.00,,,0.00,Meteo,2013-03-08 19:51:00,
2013-03-08 13:56:00,43.0,27.0,30.22,SSE,167,4.0,5.0,52,0.00,,,0.00,Meteo,2013-03-08 19:56:00,
2013-03-08 14:01:00,44.0,27.0,30.22,South,184,4.0,6.0,51,0.00,,,0.00,Meteo,2013-03-08 20:01:00,
2013-03-08 14:06:00,44.0,27.0,30.22,SSW,204,6.0,9.0,50,0.00,,,0.00,Meteo,2013-03-08 20:06:00,
2013-03-08 14:11:00,44.0,27.0,30.22,South,181,4.0,5.0,50,0.00,,,0.00,Meteo,2013-03-08 20:11:00,
2013-03-08 14:16:00,45.0,27.0,30.22,SSE,151,2.0,4.0,50,0.00,,,0.00,Meteo,2013-03-08 20:16:00,
2013-03-08 14:21:00,45.0,27.0,30.21,South,180,2.0,3.0,49,0.00,,,0.00,Meteo,2013-03-08 20:21:00,
2013-03-08 14:26:00,46.0,27.0,30.22,SSW,200,5.0,7.0,48,0.00,,,0.00,Meteo,2013-03-08 20:26:00,
2013-03-08 14:31:00,46.0,27.0,30.22,SSW,195,6.0,10.0,48,0.00,,,0.00,Meteo,2013-03-08 20:31:00,
2013-03-08 14:36:00,46.0,27.0,30.22,SSW,199,4.0,6.0,47,0.00,,,0.00,Meteo,2013-03-08 20:36:00,
2013-03-08 14:41:00,46.0,27.0,30.22,South,182,5.0,7.0,47,0.00,,,0.00,Meteo,2013-03-08 20:41:00,
2013-03-08 14:46:00,46.0,26.0,30.22,South,190,3.0,6.0,46,0.00,,,0.00,Meteo,2013-03-08 20:46:00,
2013-03-08 14:51:00,46.0,26.0,30.22,South,179,5.0,8.0,46,0.00,,,0.00,Meteo,2013-03-08 20:51:00,
2013-03-08 14:57:00,46.0,26.0,30.22,SSW,195,2.0,4.0,46,0.00,,,0.00,Meteo,2013-03-08 20:57:00,
2013-03-08 15:02:00,46.0,26.0,30.21,South,185,4.0,8.0,45,0.00,,,0.00,Meteo,2013-03-08 21:02:00,
2013-03-08 15:07:00,46.0,26.0,30.21,South,179,3.0,5.0,46,0.00,,,0.00,Meteo,2013-03-08 21:07:00,
2013-03-08 15:12:00,46.0,26.0,30.21,South,190,3.0,5.0,46,0.00,,,0.00,Meteo,2013-03-08 21:12:00,
2013-03-08 15:17:00,46.0,26.0,30.21,South,191,3.0,6.0,46,0.00,,,0.00,Meteo,2013-03-08 21:17:00,
2013-03-08 15:22:00,46.0,26.0,30.21,South,190,3.0,5.0,46,0.00,,,0.00,Meteo,2013-03-08 21:22:00,
2013-03-08 15:27:00,46.0,27.0,30.21,SSW,200,3.0,4.0,47,0.00,,,0.00,Meteo,2013-03-08 21:27:00,
2013-03-08 15:32:00,46.0,26.0,30.21,SSW,208,4.0,5.0,46,0.00,,,0.00,Meteo,2013-03-08 21:32:00,
2013-03-08 15:37:00,46.0,26.0,30.21,SSW,211,5.0,7.0,46,0.00,,,0.00,Meteo,2013-03-08 21:37:00,
2013-03-08 15:42:00,45.0,26.0,30.20,SSW,196,5.0,7.0,47,0.00,,,0.00,Meteo,2013-03-08 21:42:00,
2013-03-08 15:47:00,45.0,26.0,30.20,South,179,3.0,4.0,47,0.00,,,0.00,Meteo,2013-03-08 21:47:00,
2013-03-08 15:52:00,45.0,27.0,30.20,South,187,2.0,3.0,48,0.00,,,0.00,Meteo,2013-03-08 21:52:00,
2013-03-08 15:57:00,45.0,26.0,30.20,South,183,3.0,4.0,47,0.00,,,0.00,Meteo,2013-03-08 21:57:00,
2013-03-08 16:02:00,45.0,27.0,30.20,South,189,2.0,4.0,48,0.00,,,0.00,Meteo,2013-03-08 22:02:00,
2013-03-08 16:07:00,45.0,27.0,30.20,SSW,192,3.0,5.0,48,0.00,,,0.00,Meteo,2013-03-08 22:07:00,
2013-03-08 16:12:00,45.0,27.0,30.20,SSW,207,3.0,4.0,48,0.00,,,0.00,Meteo,2013-03-08 22:12:00,
2013-03-08 16:17:00,44.0,26.0,30.20,SSW,198,1.0,2.0,49,0.00,,,0.00,Meteo,2013-03-08 22:17:00,
2013-03-08 16:22:00,45.0,27.0,30.20,SSW,202,1.0,2.0,48,0.00,,,0.00,Meteo,2013-03-08 22:22:00,
2013-03-08 16:27:00,45.0,27.0,30.20,South,174,2.0,4.0,49,0.00,,,0.00,Meteo,2013-03-08 22:27:00,
2013-03-08 16:32:00,44.0,26.0,30.20,SSW,192,4.0,5.0,49,0.00,,,0.00,Meteo,2013-03-08 22:32:00,
2013-03-08 16:37:00,44.0,26.0,30.20,SSW,194,2.0,3.0,49,0.00,,,0.00,Meteo,2013-03-08 22:37:00,
2013-03-08 16:42:00,44.0,26.0,30.20,South,188,2.0,3.0,49,0.00,,,0.00,Meteo,2013-03-08 22:42:00,
2013-03-08 16:47:00,44.0,27.0,30.20,South,178,1.0,2.0,50,0.00,,,0.00,Meteo,2013-03-08 22:47:00,
2013-03-08 16:52:00,44.0,27.0,30.21,SSW,196,2.0,3.0,50,0.00,,,0.00,Meteo,2013-03-08 22:52:00,
2013-03-08 16:57:00,44.0,27.0,30.21,South,178,3.0,4.0,50,0.00,,,0.00,Meteo,2013-03-08 22:57:00,
2013-03-08 17:02:00,43.0,26.0,30.21,SSE,161,1.0,2.0,50,0.00,,,0.00,Meteo,2013-03-08 23:02:00,
2013-03-08 17:07:00,43.0,26.0,30.21,SSW,213,2.0,4.0,51,0.00,,,0.00,Meteo,2013-03-08 23:07:00,
2013-03-08 17:12:00,43.0,26.0,30.21,SSW,209,1.0,3.0,51,0.00,,,0.00,Meteo,2013-03-08 23:12:00,
2013-03-08 17:17:00,42.0,26.0,30.21,SSW,193,1.0,3.0,52,0.00,,,0.00,Meteo,2013-03-08 23:17:00,
2013-03-08 17:22:00,42.0,26.0,30.21,South,186,1.0,2.0,53,0.00,,,0.00,Meteo,2013-03-08 23:22:00,
2013-03-08 17:27:00,42.0,26.0,30.21,South,174,1.0,2.0,53,0.00,,,0.00,Meteo,2013-03-08 23:27:00,
2013-03-08 17:32:00,42.0,26.0,30.21,SSW,212,1.0,2.0,53,0.00,,,0.00,Meteo,2013-03-08 23:32:00,
2013-03-08 17:37:00,42.0,26.0,30.21,North,0,0.0,0.0,53,0.00,,,0.00,Meteo,2013-03-08 23:37:00,
2013-03-08 17:42:00,40.0,26.0,30.21,North,353,2.0,3.0,57,0.00,,,0.00,Meteo,2013-03-08 23:42:00,
2013-03-08 17:47:00,38.0,25.0,30.21,NE,44,2.0,3.0,60,0.00,,,0.00,Meteo,2013-03-08 23:47:00,
2013-03-08 17:52:00,38.0,26.0,30.21,NE,36,2.0,3.0,61,0.00,,,0.00,Meteo,2013-03-08 23:52:00,
2013-03-08 17:57:00,37.0,26.0,30.21,North,11,1.0,2.0,63,0.00,,,0.00,Meteo,2013-03-08 23:57:00,
2013-03-08 18:02:00,36.0,26.0,30.21,North,3,1.0,2.0,66,0.00,,,0.00,Meteo,2013-03-09 00:02:00,
2013-03-08 18:07:00,35.0,25.0,30.22,ENE,58,2.0,4.0,66,0.00,,,0.00,Meteo,2013-03-09 00:07:00,
2013-03-08 18:12:00,35.0,25.0,30.22,NE,54,1.0,2.0,67,0.00,,,0.00,Meteo,2013-03-09 00:12:00,
2013-03-08 18:17:00,34.0,25.0,30.22,North,351,2.0,3.0,69,0.00,,,0.00,Meteo,2013-03-09 00:17:00,
2013-03-08 18:23:00,33.0,25.0,30.22,North,349,2.0,4.0,73,0.00,,,0.00,Meteo,2013-03-09 00:23:00,
2013-03-08 18:28:00,32.0,25.0,30.22,North,349,2.0,2.0,76,0.00,,,0.00,Meteo,2013-03-09 00:28:00,
2013-03-08 18:33:00,31.0,25.0,30.22,North,3,2.0,3.0,79,0.00,,,0.00,Meteo,2013-03-09 00:33:00,
2013-03-08 18:38:00,31.0,26.0,30.22,NNE,20,1.0,2.0,80,0.00,,,0.00,Meteo,2013-03-09 00:38:00,
2013-03-08 18:43:00,30.0,25.0,30.22,NNE,20,0.0,1.0,81,0.00,,,0.00,Meteo,2013-03-09 00:43:00,
2013-03-08 18:48:00,30.0,25.0,30.22,NE,36,1.0,3.0,83,0.00,,,0.00,Meteo,2013-03-09 00:48:00,
2013-03-08 18:53:00,30.0,25.0,30.22,NE,55,1.0,2.0,83,0.00,,,0.00,Meteo,2013-03-09 00:53:00,
2013-03-08 18:58:00,30.0,25.0,30.22,NE,55,1.0,2.0,83,0.00,,,0.00,Meteo,2013-03-09 00:58:00,
2013-03-08 19:03:00,30.0,26.0,30.22,NE,55,1.0,2.0,84,0.00,,,0.00,Meteo,2013-03-09 01:03:00,
2013-03-08 19:08:00,30.0,26.0,30.22,NE,40,1.0,2.0,84,0.00,,,0.00,Meteo,2013-03-09 01:08:00,
2013-03-08 19:13:00,30.0,26.0,30.22,NE,42,0.0,1.0,84,0.00,,,0.00,Meteo,2013-03-09 01:13:00,
2013-03-08 19:18:00,29.0,25.0,30.22,NE,39,2.0,2.0,84,0.00,,,0.00,Meteo,2013-03-09 01:18:00,
2013-03-08 19:23:00,29.0,25.0,30.22,NE,42,1.0,2.0,84,0.00,,,0.00,Meteo,2013-03-09 01:23:00,
2013-03-08 19:28:00,29.0,25.0,30.22,North,2,0.0,3.0,84,0.00,,,0.00,Meteo,2013-03-09 01:28:00,
2013-03-08 19:34:00,29.0,25.0,30.22,North,11,1.0,3.0,84,0.00,,,0.00,Meteo,2013-03-09 01:34:00,
2013-03-08 19:39:00,29.0,25.0,30.22,North,0,0.0,0.0,85,0.00,,,0.00,Meteo,2013-03-09 01:39:00,
2013-03-08 19:44:00,29.0,25.0,30.21,NNE,19,2.0,3.0,85,0.00,,,0.00,Meteo,2013-03-09 01:44:00,
2013-03-08 19:49:00,29.0,25.0,30.21,North,0,0.0,0.0,85,0.00,,,0.00,Meteo,2013-03-09 01:49:00,
2013-03-08 19:54:00,28.0,24.0,30.22,NE,40,0.0,1.0,85,0.00,,,0.00,Meteo,2013-03-09 01:54:00,
2013-03-08 19:59:00,28.0,24.0,30.21,NE,39,0.0,1.0,84,0.00,,,0.00,Meteo,2013-03-09 01:59:00,
2013-03-08 20:04:00,28.0,24.0,30.21,NE,35,1.0,2.0,84,0.00,,,0.00,Meteo,2013-03-09 02:04:00,
2013-03-08 20:09:00,28.0,24.0,30.20,NNE,28,0.0,1.0,83,0.00,,,0.00,Meteo,2013-03-09 02:09:00,
2013-03-08 20:14:00,28.0,24.0,30.20,North,0,0.0,0.0,83,0.00,,,0.00,Meteo,2013-03-09 02:14:00,
2013-03-08 20:19:00,28.0,24.0,30.21,NNE,28,0.0,1.0,83,0.00,,,0.00,Meteo,2013-03-09 02:19:00,
2013-03-08 20:25:00,28.0,23.0,30.21,NNE,12,1.0,2.0,82,0.00,,,0.00,Meteo,2013-03-09 02:25:00,
2013-03-08 20:30:00,28.0,23.0,30.20,North,6,1.0,2.0,82,0.00,,,0.00,Meteo,2013-03-09 02:30:00,
2013-03-08 20:35:00,28.0,24.0,30.20,North,6,1.0,2.0,83,0.00,,,0.00,Meteo,2013-03-09 02:35:00,
2013-03-08 20:40:00,28.0,23.0,30.20,North,0,0.0,0.0,82,0.00,,,0.00,Meteo,2013-03-09 02:40:00,
2013-03-08 20:45:00,28.0,23.0,30.20,North,0,0.0,0.0,82,0.00,,,0.00,Meteo,2013-03-09 02:45:00,
2013-03-08 20:50:00,27.0,23.0,30.20,North,0,0.0,0.0,83,0.00,,,0.00,Meteo,2013-03-09 02:50:00,
2013-03-08 20:55:00,27.0,22.0,30.20,North,0,0.0,0.0,82,0.00,,,0.00,Meteo,2013-03-09 02:55:00,
2013-03-08 21:00:00,27.0,23.0,30.20,North,0,0.0,0.0,83,0.00,,,0.00,Meteo,2013-03-09 03:00:00,
2013-03-08 21:05:00,27.0,23.0,30.20,North,6,1.0,1.0,83,0.00,,,0.00,Meteo,2013-03-09 03:05:00,
2013-03-08 21:10:00,27.0,23.0,30.20,North,0,0.0,0.0,83,0.00,,,0.00,Meteo,2013-03-09 03:10:00,
2013-03-08 21:15:00,27.0,23.0,30.19,North,0,0.0,0.0,83,0.00,,,0.00,Meteo,2013-03-09 03:15:00,
2013-03-08 21:20:00,27.0,23.0,30.19,North,0,0.0,0.0,83,0.00,,,0.00,Meteo,2013-03-09 03:20:00,
2013-03-08 21:25:00,27.0,23.0,30.19,North,0,0.0,0.0,84,0.00,,,0.00,Meteo,2013-03-09 03:25:00,
2013-03-08 21:30:00,27.0,23.0,30.19,North,0,0.0,0.0,84,0.00,,,0.00,Meteo,2013-03-09 03:30:00,
2013-03-08 21:35:00,27.0,23.0,30.19,North,0,0.0,0.0,84,0.00,,,0.00,Meteo,2013-03-09 03:35:00,
2013-03-08 21:40:00,27.0,23.0,30.19,North,0,0.0,0.0,84,0.00,,,0.00,Meteo,2013-03-09 03:40:00,
2013-03-08 21:45:00,26.0,22.0,30.19,North,0,0.0,0.0,84,0.00,,,0.00,Meteo,2013-03-09 03:45:00,
2013-03-08 21:50:00,26.0,22.0,30.19,North,0,0.0,0.0,84,0.00,,,0.00,Meteo,2013-03-09 03:50:00,
2013-03-08 21:55:00,26.0,22.0,30.19,North,0,0.0,0.0,84,0.00,,,0.00,Meteo,2013-03-09 03:55:00,
2013-03-08 22:01:00,26.0,22.0,30.19,North,0,0.0,0.0,85,0.00,,,0.00,Meteo,2013-03-09 04:01:00,
2013-03-08 22:06:00,26.0,22.0,30.19,North,0,0.0,0.0,85,0.00,,,0.00,Meteo,2013-03-09 04:06:00,
2013-03-08 22:11:00,26.0,22.0,30.18,North,0,0.0,0.0,84,0.00,,,0.00,Meteo,2013-03-09 04:11:00,
2013-03-08 22:16:00,26.0,22.0,30.18,North,0,0.0,0.0,85,0.00,,,0.00,Meteo,2013-03-09 04:16:00,
2013-03-08 22:21:00,26.0,22.0,30.18,North,0,0.0,0.0,85,0.00,,,0.00,Meteo,2013-03-09 04:21:00,
2013-03-08 22:26:00,26.0,22.0,30.18,North,0,0.0,0.0,85,0.00,,,0.00,Meteo,2013-03-09 04:26:00,
2013-03-08 22:31:00,26.0,22.0,30.18,North,0,0.0,0.0,85,0.00,,,0.00,Meteo,2013-03-09 04:31:00,
2013-03-08 22:36:00,26.0,22.0,30.18,North,0,0.0,0.0,85,0.00,,,0.00,Meteo,2013-03-09 04:36:00,
2013-03-08 22:41:00,26.0,22.0,30.18,North,0,0.0,0.0,86,0.00,,,0.00,Meteo,2013-03-09 04:41:00,
2013-03-08 22:46:00,26.0,22.0,30.18,North,0,0.0,0.0,86,0.00,,,0.00,Meteo,2013-03-09 04:46:00,
2013-03-08 22:51:00,26.0,22.0,30.18,North,0,0.0,0.0,86,0.00,,,0.00,Meteo,2013-03-09 04:51:00,
2013-03-08 22:56:00,26.0,22.0,30.17,North,0,0.0,0.0,86,0.00,,,0.00,Meteo,2013-03-09 04:56:00,
2013-03-08 23:01:00,26.0,22.0,30.17,North,0,0.0,0.0,86,0.00,,,0.00,Meteo,2013-03-09 05:01:00,
2013-03-08 23:06:00,26.0,22.0,30.17,North,0,0.0,0.0,86,0.00,,,0.00,Meteo,2013-03-09 05:06:00,
2013-03-08 23:08:00,26.0,23.0,30.17,North,0,0.0,0.0,87,0.00,,,0.00,Meteo,2013-03-09 05:08:00,
2013-03-08 23:13:00,26.0,22.0,30.17,North,0,0.0,0.0,86,0.00,,,0.00,Meteo,2013-03-09 05:13:00,
2013-03-08 23:17:00,26.0,22.0,30.17,North,0,0.0,0.0,86,0.00,,,0.00,Meteo,2013-03-09 05:17:00,
2013-03-08 23:22:00,26.0,22.0,30.17,North,0,0.0,0.0,86,0.00,,,0.00,Meteo,2013-03-09 05:22:00,
2013-03-08 23:25:00,26.0,22.0,30.17,North,0,0.0,0.0,86,0.00,,,0.00,Meteo,2013-03-09 05:25:00,
2013-03-08 23:30:00,26.0,22.0,30.17,North,0,0.0,0.0,86,0.00,,,0.00,Meteo,2013-03-09 05:30:00,
2013-03-08 23:35:00,26.0,22.0,30.17,North,0,0.0,0.0,86,0.00,,,0.00,Meteo,2013-03-09 05:35:00,
2013-03-08 23:40:00,26.0,22.0,30.16,North,0,0.0,0.0,86,0.00,,,0.00,Meteo,2013-03-09 05:40:00,
2013-03-08 23:45:00,25.0,21.0,30.16,North,0,0.0,0.0,86,0.00,,,0.00,Meteo,2013-03-09 05:45:00,
2013-03-08 23:50:00,25.0,21.0,30.15,North,0,0.0,0.0,86,0.00,,,0.00,Meteo,2013-03-09 05:50:00,
2013-03-08 23:55:00,25.0,21.0,30.15,North,0,0.0,0.0,86,0.00,,,0.00,Meteo,2013-03-09 05:55:00,